Alta, CA

7:01 PM PST on February 24, 2017 (GMT -0800)
Blue Canyon-Nyack

Weather History for KBLU - January, 2014

Change the Weather History Date:

Tuesday, January 14, 2014

  Actual Average Record
Temperature  
Mean Temperature 56 °F -  
Max Temperature 64 °F 47 °F 68 °F (2009)
Min Temperature 48 °F 35 °F 12 °F (1950)
Degree Days  
Heating Degree Days 9    
Growing Degree Days 6 (Base 50)    
Moisture  
Dew Point 6 °F    
Average Humidity 14    
Maximum Humidity 20    
Minimum Humidity 9    
Precipitation  
Precipitation 0.00 in - - ()
Sea Level Pressure  
Sea Level Pressure 30.39 in    
Wind  
Wind Speed 8 mph (ENE)    
Max Wind Speed 13 mph    
Max Gust Speed 24 mph    
Visibility 10 miles    
Events      
Averages and records for this station are not official NWS values.
T = Trace of Precipitation, MM = Missing Value Source: NWS Daily Summary

Daily Weather History Graph

Daily Weather History Graph

Search for Another Location

Airport or City:

Trip Planner

Search our weather history database for the weather conditions in past years. The results will help you decide how hot, cold, wet, or windy it might be!

Date:

Astronomy

Jan. 14, 2014 Rise Set
Actual Time 7:21 AM PST 5:03 PM PST
Civil Twilight 6:51 AM PST 5:32 PM PST
Nautical Twilight 6:18 AM PST 6:05 PM PST
Astronomical Twilight 5:46 AM PST 6:37 PM PST
Moon 4:12 PM PST (1/14) 5:59 AM PST (1/14)
Length of Visible Light 10h 40m
Length of Day
9h 41m
Waxing Gibbous, 98% of the Moon is Illuminated
Jan 14
Waxing Gibbous
Jan 15
Full
Jan 23
Last Quarter
Jan 30
New
Feb 6
First Quarter

Hourly Weather History & Observations

Time (PST) Temp. Dew Point Humidity Pressure Visibility Wind Dir Wind Speed Gust Speed Precip Events Conditions
12:52 AM 48.9 °F 3.0 °F 15% 30.38 in 10.0 mi Variable 5.8 mph - N/A   Clear
1:52 AM 51.1 °F 3.9 °F 15% 30.36 in 10.0 mi ENE 9.2 mph 23.0 mph N/A   Clear
2:52 AM 51.1 °F 9.0 °F 18% 30.35 in 10.0 mi ENE 10.4 mph 23.0 mph N/A   Clear
3:52 AM 51.1 °F 10.0 °F 19% 30.36 in 10.0 mi ENE 11.5 mph 21.9 mph N/A   Clear
4:52 AM 51.1 °F 10.0 °F 19% 30.38 in 10.0 mi ENE 11.5 mph 23.0 mph N/A   Clear
5:52 AM 50.0 °F 10.0 °F 20% 30.42 in 10.0 mi ENE 9.2 mph 23.0 mph N/A   Clear
6:52 AM 50.0 °F 10.0 °F 20% 30.44 in 10.0 mi ENE 11.5 mph 20.7 mph N/A   Clear
7:52 AM 52.0 °F 7.0 °F 16% 30.43 in 10.0 mi ENE 11.5 mph 24.2 mph N/A   Clear
8:52 AM 54.0 °F 7.0 °F 15% 30.44 in 10.0 mi ENE 12.7 mph 23.0 mph N/A   Clear
9:52 AM 57.0 °F 9.0 °F 15% 30.44 in 10.0 mi ENE 8.1 mph 18.4 mph N/A   Clear
10:52 AM 61.0 °F 7.0 °F 12% 30.44 in 10.0 mi ENE 8.1 mph - N/A   Clear
11:52 AM 63.0 °F 6.1 °F 11% 30.42 in 10.0 mi East 8.1 mph - N/A   Clear
12:52 PM 64.9 °F 5.0 °F 9% 30.39 in 10.0 mi Variable 4.6 mph - N/A   Clear
1:52 PM 64.9 °F 6.1 °F 10% 30.38 in 10.0 mi Variable 3.5 mph - N/A   Clear
2:52 PM 64.9 °F 5.0 °F 9% 30.38 in 10.0 mi ENE 5.8 mph - N/A   Clear
3:52 PM 63.0 °F 9.0 °F 12% 30.40 in 10.0 mi Calm Calm - N/A   Clear
4:52 PM 57.9 °F 8.1 °F 14% 30.40 in 10.0 mi East 6.9 mph - N/A   Clear
5:52 PM 55.0 °F 6.1 °F 14% 30.41 in 10.0 mi ENE 6.9 mph - N/A   Clear
6:52 PM 52.0 °F 5.0 °F 15% 30.43 in 10.0 mi East 4.6 mph - N/A   Clear
7:52 PM 54.0 °F 3.0 °F 13% 30.40 in 10.0 mi Variable 6.9 mph 20.7 mph N/A   Clear
8:52 PM 53.1 °F 1.9 °F 12% 30.39 in 10.0 mi Variable 5.8 mph - N/A   Clear
9:52 PM 54.0 °F -2.0 °F 10% 30.37 in 10.0 mi NE 10.4 mph 19.6 mph N/A   Clear
10:52 PM 54.0 °F -0.9 °F 11% 30.33 in 10.0 mi ENE 10.4 mph 20.7 mph N/A   Clear
11:52 PM 54.0 °F -2.9 °F 10% 30.32 in 10.0 mi East 11.5 mph 20.7 mph N/A   Clear